Location: Ar Ranvel
(48.3000°N, 4.8833°W)
Time: 12:49:02
(UTC+00:00)

Uosat 12 SS-18 rocket - Pass Details

Date: 16 June 2021
Orbit: 587 x 1397 km, 64.6° (Epoch: 29 July)

Event Time Altitude Azimuth Distance (km) Brightness Sun altitude
Exits shadow 23:10:43 25° 199° (SSW) 1,264 5.2 -16.6°
Maximum altitude 23:13:11 66° 124° (SE) 721 4.1 -16.8°
Drops below altitude 10° 23:18:10 10° 43° (NE) 2,260 7.4 -17.0°
Sets 23:20:47 0° 41° (NE) 3,307 8.3 -17.1°
